Regional Weather Roundup
Issued by NWS Huntsville, AL

Home | Current Version | Previous Version | Text Only | Print | Product List | Glossary On
Versions: 1 2 3 4 5 6 7 8 9 10 11 12 13 14 15 16 17 18 19 20 21 22 23 24 25 26 27 28 29 30 31 32 33 34 35 36 37 38 39 40 41 42 43 44 45 46 47 48 49 50
000
ASUS44 KHUN 251424
RWRHUN

WEATHER ROUNDUP FOR THE TENNESSEE VALLEY
NATIONAL WEATHER SERVICE HUNTSVILLE AL
900 AM CDT FRI JUL 25 2014

ALZ001>004-251500-
NORTHWEST ALABAMA

CITY           SKY/WX    TMP DP  RH WIND       PRES   REMARKS
COURTLAND HCN    N/A     73 N/A N/A E3          N/A
SHOALS AIRPORT SUNNY     74  67  78 SE5       30.07R
SHOALS TVA RES   N/A     72 N/A N/A MISG        N/A
$$

ALZ005>007-016-251500-
NORTH CENTRAL ALABAMA

CITY           SKY/WX    TMP DP  RH WIND       PRES   REMARKS
CULLMAN AG STN   N/A     72 N/A N/A NE5         N/A
DECATUR AP     SUNNY     74  68  81 SE6       30.06F
HUNTSVILLE AP  MOSUNNY   75  67  76 SE6       30.06F
HUN NWS/UAH      N/A     77  64  62 S2          N/A
MERIDIANVILLE  SUNNY     73  63  68 CALM      30.07S
REDSTONE ARSN  SUNNY     75  64  69 SE3       30.07F
VINEMONT AP    FAIR      74  68  80 CALM      30.09F
$$

ALZ008>010-251500-
NORTHEAST ALABAMA

CITY           SKY/WX    TMP DP  RH WIND       PRES   REMARKS
ALBERTVILLE    SUNNY     73  72  94 CALM      30.07F
CROSSVILLE       N/A     72 N/A N/A CALM        N/A
FORT PAYNE     SUNNY     72  63  73 CALM      30.07F
SCOTTSBORO AP  SUNNY     73  64  73 N6        30.08S
SCOTTSBORO HCN   N/A     70 N/A N/A MISG        N/A
VALLEY HEAD      N/A     70 N/A N/A MISG        N/A
$$

TNZ076-096-097-251500-
SOUTHEASTERN MIDDLE TENNESSEE

CITY           SKY/WX    TMP DP  RH WIND       PRES   REMARKS
FAYETTEVILLE   SUNNY     73  63  68 E9        30.09R
TULLAHOMA      SUNNY     73  59  60 CALM      30.10R
WINCHESTER     SUNNY     75  64  69 CALM      30.09R
$$

...SURROUNDING SITES...

CITY           SKY/WX    TMP DP  RH WIND       PRES   REMARKS
ATLANTA        MOSUNNY   77  71  82 NW5       30.07R
ANNISTON       SUNNY     73  70  90 SE3       30.08R
BIRMINGHAM     MOSUNNY   79  68  69 CALM      30.09R
CHATTANOOGA    MOSUNNY   73  63  70 CALM      30.08F
CORINTH        FAIR      72  64  78 CALM      30.06F
DALTON         CLOUDY    66  66 100 CALM      30.09S
GADSDEN          N/A    N/A N/A N/A MISG        N/A
GOLDEN TRNGL   SUNNY     73  64  73 CALM      30.07R
HALEYVILLE     FAIR      74  68  81 CALM      30.09F
JACKSON TN     MOSUNNY   69  62  78 CALM      30.08R
LEWISBURG      FAIR      71  62  73 CALM      30.07F
MEMPHIS        MOSUNNY   74  61  63 SE3       30.07R
MURFREESBORO   FAIR      71  61  70 CALM      30.07S
NASHVILLE      MOSUNNY   74  62  66 E3        30.10R
OXFORD MS      FAIR      72  63  73 CALM      30.09R
ROME           MOSUNNY   74  66  76 VRB3      30.08S
SAVANNAH       SUNNY     72  72 100 CALM      30.07S
TUPELO         SUNNY     74  65  73 CALM      30.06R
TUSCALOOSA     SUNNY     78  68  71 CALM      30.05R
$$

...GULF COAST WEATHER...

CITY           SKY/WX    TMP DP  RH WIND       PRES   REMARKS
GULFPORT       SUNNY     86  75  69 W6        30.02R HX  95
PASCAGOULA     SUNNY     83  76  79 W3        30.03R HX  91
MOBILE         MOSUNNY   81  75  82 CALM      30.04R
GULF SHORES    MOSUNNY   83  76  77 W7        30.03S HX  92
PENSACOLA      PTSUNNY   83  75  77 W3        30.03R HX  90
DESTIN           N/A     85  76  74 S5        30.04R HX  94
PANAMA CITY    SUNNY     85  78  78 SW10      30.06S HX  97
APPALACHICOLA  MOSUNNY   86  75  69 SW9       30.06S HX  95
$$




USA.gov is the U.S. government's official web portal to all federal, state and local government web resources and services.